Time,TemperatureF,DewpointF,PressureIn,WindDirection,WindDirectionDegrees,WindSpeedMPH,WindSpeedGustMPH,Humidity,HourlyPrecipIn,Conditions,Clouds,dailyrainin,SolarRadiationWatts/m^2,SoftwareType,DateUTC
2013-01-14 17:55:00,61.3,59.6,30.08,WSW,247,0.0,-999.0,94,0.06,,,0.25,0,Wunderground v.1.15,2013-01-14 22:55:00,
2013-01-14 18:00:00,61.1,59.4,30.08,WSW,247,0.0,-999.0,94,0.04,,,0.25,0,Wunderground v.1.15,2013-01-14 23:00:00,
2013-01-14 18:05:00,60.7,59.0,30.08,WSW,247,0.0,-999.0,94,0.00,,,0.25,0,Wunderground v.1.15,2013-01-14 23:05:00,
2013-01-14 18:10:00,60.6,58.9,30.08,WSW,247,0.0,-999.0,94,0.00,,,0.25,0,Wunderground v.1.15,2013-01-14 23:10:00,
2013-01-14 18:15:00,60.4,58.7,30.08,WSW,247,0.0,-999.0,94,0.00,,,0.26,0,Wunderground v.1.15,2013-01-14 23:15:00,
2013-01-14 18:21:00,60.3,58.6,30.09,WSW,247,0.0,-999.0,94,0.00,,,0.26,0,Wunderground v.1.15,2013-01-14 23:21:00,
2013-01-14 18:26:00,60.2,58.5,30.08,WSW,247,0.0,-999.0,94,0.08,,,0.27,0,Wunderground v.1.15,2013-01-14 23:26:00,
2013-01-14 18:31:00,60.1,58.4,30.08,WSW,247,0.0,-999.0,94,0.06,,,0.27,0,Wunderground v.1.15,2013-01-14 23:31:00,
2013-01-14 18:37:00,59.9,58.2,30.09,WSW,247,0.0,-999.0,94,0.04,,,0.27,0,Wunderground v.1.15,2013-01-14 23:37:00,
2013-01-14 18:42:00,59.8,58.1,30.09,WSW,247,0.0,-999.0,94,0.00,,,0.27,0,Wunderground v.1.15,2013-01-14 23:42:00,
2013-01-14 18:47:00,59.6,57.9,30.09,WSW,247,0.0,-999.0,94,0.00,,,0.28,0,Wunderground v.1.15,2013-01-14 23:47:00,
2013-01-14 18:53:00,59.5,57.8,30.09,WSW,247,0.0,-999.0,94,0.11,,,0.29,0,Wunderground v.1.15,2013-01-14 23:53:00,
2013-01-14 18:58:00,59.3,57.6,30.09,WSW,247,0.0,-999.0,94,0.63,,,0.33,0,Wunderground v.1.15,2013-01-14 23:58:00,
2013-01-14 19:03:00,59.1,57.4,30.09,WSW,247,0.0,-999.0,94,0.17,,,0.34,0,Wunderground v.1.15,2013-01-15 00:03:00,
2013-01-14 19:09:00,59.0,57.3,30.08,WSW,247,0.0,-999.0,94,0.07,,,0.34,0,Wunderground v.1.15,2013-01-15 00:09:00,
2013-01-14 19:14:00,59.0,57.3,30.09,WSW,247,0.0,-999.0,94,0.05,,,0.34,0,Wunderground v.1.15,2013-01-15 00:14:00,
2013-01-14 19:19:00,59.0,57.3,30.09,WSW,247,0.0,-999.0,94,0.04,,,0.35,0,Wunderground v.1.15,2013-01-15 00:19:00,
2013-01-14 19:25:00,59.0,57.3,30.09,WSW,247,0.0,-999.0,94,0.07,,,0.36,0,Wunderground v.1.15,2013-01-15 00:25:00,
2013-01-14 19:30:00,59.0,57.3,30.09,WSW,247,0.0,-999.0,94,0.16,,,0.38,0,Wunderground v.1.15,2013-01-15 00:30:00,
2013-01-14 19:35:00,59.0,57.3,30.09,WSW,247,0.0,-999.0,94,0.51,,,0.41,0,Wunderground v.1.15,2013-01-15 00:35:00,
2013-01-14 19:41:00,59.0,57.3,30.08,WSW,247,0.0,-999.0,94,0.16,,,0.42,0,Wunderground v.1.15,2013-01-15 00:41:00,
2013-01-14 19:46:00,59.0,57.3,30.08,WSW,247,0.0,-999.0,94,0.21,,,0.44,0,Wunderground v.1.15,2013-01-15 00:46:00,
2013-01-14 19:51:00,59.0,57.3,30.08,WSW,247,0.0,-999.0,94,0.90,,,0.49,0,Wunderground v.1.15,2013-01-15 00:51:00,
2013-01-14 19:57:00,59.0,57.3,30.08,WSW,247,0.0,-999.0,94,0.75,,,0.58,0,Wunderground v.1.15,2013-01-15 00:57:00,
2013-01-14 20:02:00,59.0,57.3,30.08,WSW,247,0.0,-999.0,94,0.16,,,0.60,0,Wunderground v.1.15,2013-01-15 01:02:00,
2013-01-14 20:07:00,59.0,57.3,30.08,WSW,247,0.0,-999.0,94,0.69,,,0.63,0,Wunderground v.1.15,2013-01-15 01:07:00,
2013-01-14 20:13:00,59.2,57.5,30.08,NNW,329,0.0,-999.0,94,0.28,,,0.65,0,Wunderground v.1.15,2013-01-15 01:13:00,
2013-01-14 20:18:00,59.2,57.5,30.09,NNW,329,1.0,-999.0,94,0.38,,,0.68,0,Wunderground v.1.15,2013-01-15 01:18:00,
2013-01-14 20:23:00,59.0,57.3,30.09,NNW,331,1.0,-999.0,94,0.46,,,0.71,0,Wunderground v.1.15,2013-01-15 01:23:00,
2013-01-14 20:29:00,58.8,57.1,30.09,NNW,338,2.0,-999.0,94,0.36,,,0.76,0,Wunderground v.1.15,2013-01-15 01:29:00,
2013-01-14 20:34:00,58.1,56.4,30.09,NNW,338,3.0,-999.0,94,0.11,,,0.77,0,Wunderground v.1.15,2013-01-15 01:34:00,
2013-01-14 20:39:00,57.8,56.1,30.10,WSW,249,1.0,-999.0,94,0.15,,,0.78,0,Wunderground v.1.15,2013-01-15 01:39:00,
2013-01-14 20:45:00,57.4,55.7,30.10,NE,44,0.0,-999.0,94,0.12,,,0.79,0,Wunderground v.1.15,2013-01-15 01:45:00,
2013-01-14 20:50:00,57.0,55.3,30.10,NE,50,1.0,-999.0,94,0.09,,,0.80,0,Wunderground v.1.15,2013-01-15 01:50:00,
2013-01-14 20:55:00,56.8,55.1,30.10,ENE,74,1.0,-999.0,94,0.07,,,0.80,0,Wunderground v.1.15,2013-01-15 01:55:00,
2013-01-14 21:01:00,56.5,54.8,30.09,ENE,61,0.0,-999.0,94,0.04,,,0.80,0,Wunderground v.1.15,2013-01-15 02:01:00,
2013-01-14 21:06:00,56.3,54.6,30.09,ENE,73,0.0,-999.0,94,0.00,,,0.80,0,Wunderground v.1.15,2013-01-15 02:06:00,
2013-01-14 21:11:00,56.2,54.5,30.09,East,93,0.0,-999.0,94,0.00,,,0.80,0,Wunderground v.1.15,2013-01-15 02:11:00,
2013-01-14 21:17:00,56.1,54.4,30.09,ENE,62,0.0,-999.0,94,0.00,,,0.80,0,Wunderground v.1.15,2013-01-15 02:17:00,
2013-01-14 21:22:00,56.0,54.3,30.10,WSW,251,1.0,-999.0,94,0.00,,,0.80,0,Wunderground v.1.15,2013-01-15 02:22:00,
2013-01-14 21:27:00,56.0,54.3,30.10,East,94,1.0,-999.0,94,0.00,,,0.80,0,Wunderground v.1.15,2013-01-15 02:27:00,
2013-01-14 21:32:00,55.9,54.2,30.09,ENE,64,1.0,-999.0,94,0.00,,,0.80,0,Wunderground v.1.15,2013-01-15 02:32:00,
2013-01-14 21:38:00,55.9,54.2,30.10,WNW,287,2.0,-999.0,94,0.00,,,0.80,0,Wunderground v.1.15,2013-01-15 02:38:00,
2013-01-14 21:43:00,55.8,54.1,30.09,East,89,2.0,-999.0,94,0.00,,,0.80,0,Wunderground v.1.15,2013-01-15 02:43:00,
2013-01-14 21:48:00,55.8,54.1,30.12,West,275,3.0,-999.0,94,0.00,,,0.80,0,Wunderground v.1.15,2013-01-15 02:48:00,
2013-01-14 21:54:00,55.8,54.1,30.10,ENE,65,3.0,-999.0,94,0.00,,,0.80,0,Wunderground v.1.15,2013-01-15 02:54:00,
2013-01-14 21:59:00,55.8,54.1,30.10,ENE,59,2.0,-999.0,94,0.00,,,0.80,0,Wunderground v.1.15,2013-01-15 02:59:00,
2013-01-14 22:04:00,55.7,54.0,30.09,East,80,2.0,-999.0,94,0.00,,,0.80,0,Wunderground v.1.15,2013-01-15 03:04:00,
2013-01-14 22:09:00,55.7,54.0,30.09,East,96,2.0,-999.0,94,0.00,,,0.80,0,Wunderground v.1.15,2013-01-15 03:09:00,
2013-01-14 22:15:00,55.6,53.9,30.10,ENE,57,2.0,-999.0,94,0.00,,,0.80,0,Wunderground v.1.15,2013-01-15 03:15:00,
2013-01-14 22:20:00,55.5,53.8,30.10,East,90,1.0,-999.0,94,0.00,,,0.80,0,Wunderground v.1.15,2013-01-15 03:20:00,
2013-01-14 22:25:00,55.4,53.7,30.10,ENE,60,1.0,-999.0,94,0.00,,,0.80,0,Wunderground v.1.15,2013-01-15 03:25:00,
2013-01-14 22:31:00,55.3,53.6,30.10,ENE,58,1.0,-999.0,94,0.00,,,0.80,0,Wunderground v.1.15,2013-01-15 03:31:00,
2013-01-14 22:36:00,55.2,53.5,30.10,ENE,73,1.0,-999.0,94,0.00,,,0.80,0,Wunderground v.1.15,2013-01-15 03:36:00,
2013-01-14 22:41:00,55.0,53.3,30.12,North,360,2.0,-999.0,94,0.00,,,0.80,0,Wunderground v.1.15,2013-01-15 03:41:00,
2013-01-14 22:46:00,54.9,53.2,30.10,East,97,3.0,-999.0,94,0.00,,,0.80,0,Wunderground v.1.15,2013-01-15 03:46:00,
2013-01-14 22:52:00,54.7,53.0,30.10,ENE,71,4.0,-999.0,94,0.00,,,0.80,0,Wunderground v.1.15,2013-01-15 03:52:00,
2013-01-14 22:57:00,54.4,52.7,30.11,East,80,5.0,-999.0,94,0.00,,,0.80,0,Wunderground v.1.15,2013-01-15 03:57:00,
2013-01-14 23:02:00,54.3,52.6,30.11,East,82,3.0,-999.0,94,0.00,,,0.80,0,Wunderground v.1.15,2013-01-15 04:02:00,
2013-01-14 23:07:00,54.3,52.6,30.11,East,89,1.0,-999.0,94,0.00,,,0.80,0,Wunderground v.1.15,2013-01-15 04:07:00,
2013-01-14 23:13:00,54.0,52.3,30.12,NE,44,2.0,-999.0,94,0.00,,,0.80,0,Wunderground v.1.15,2013-01-15 04:13:00,
2013-01-14 23:18:00,53.8,52.1,30.12,ENE,58,3.0,-999.0,94,0.00,,,0.80,0,Wunderground v.1.15,2013-01-15 04:18:00,
2013-01-14 23:23:00,53.7,52.0,30.13,NE,54,4.0,-999.0,94,0.00,,,0.80,0,Wunderground v.1.15,2013-01-15 04:23:00,
2013-01-14 23:28:00,53.4,51.7,30.13,WNW,288,4.0,-999.0,94,0.00,,,0.80,0,Wunderground v.1.15,2013-01-15 04:28:00,
2013-01-14 23:33:00,52.9,51.2,30.13,ENE,57,5.0,-999.0,94,0.00,,,0.80,0,Wunderground v.1.15,2013-01-15 04:33:00,
2013-01-14 23:39:00,52.0,50.3,30.15,WNW,287,5.0,-999.0,94,0.00,,,0.80,0,Wunderground v.1.15,2013-01-15 04:39:00,
2013-01-14 23:44:00,51.7,50.0,30.14,WNW,297,4.0,-999.0,94,0.00,,,0.80,0,Wunderground v.1.15,2013-01-15 04:44:00,
2013-01-14 23:49:00,51.5,49.8,30.15,North,355,3.0,-999.0,94,0.00,,,0.80,0,Wunderground v.1.15,2013-01-15 04:49:00,
2013-01-14 23:55:00,51.3,49.3,30.16,North,355,4.0,-999.0,93,0.00,,,0.80,0,Wunderground v.1.15,2013-01-15 04:55:00,